CZ-3B DEB, 40845

Orbit data source: Space-Track

CZ-3B DEB, 40845 is space debris in HEO originally from a launch on Mon, 19 Dec 2011 UTC launched from the Xichang Space Center, China (XSC). Debris objects in space refer to the collection of defunct objects orbiting the Earth. Examples of debris include non-operational satellites, rocket bodies, and fragments generated from explosions, collisions, or faulty payload assembly.

Loading next visibility...
Identifier
40845, 2011-077AA
Orbit
HEO
Country
Flag of CNCN / PRC
Related business
Manufacturer
CALT
Mission
Spacecraft
Bus & Motor
Unknown
Mass
Unknown
Launch date (UTC)
2011-12-19 (14 years ago)
Launch vehicle
Unknown
Launch site
Xichang Space Center, China (XSC)
Object type
Payload
Rocket body
Debris
Shape & HBR
Unknown
Radar Cross Section
Medium (>0.1 m² and <1 m²)

Expand to show TLE details & history
Last TLE update: 1 day ago

TLE from 1 day ago
0 CZ-3B DEB
1 40845U 11077AA  25258.77981826  .00003940  00000-0  66770-2 0  9991
2 40845  21.7201 231.4888 7451665  24.9101 357.4612  2.02429439 86660
Epoch: 2025-09-15T18:42Z
TLE epoch observation values (Epoch: 2025-09-15T18:42:56.297Z)
Latitude
0.00043°
Longitude
-44.28409°
Altitude
649.098 km
Speed
9.916 km/s
True Right ascension
15h 25m 43s
True Declination
0° 00' 02"
Sunlit
Object was in daylight at epoch
Visualization orbit readout
Latitude
Unknown
Longitude
Unknown
Altitude
Unknown
Speed
Unknown
Apparent Right ascension
Unknown
Apparent Declination
Unknown
Sunlit
N/A
Visualization observer readout
Local Sidereal Time
11:34:36
Azimuth
Unknown
Elevation
Unknown
Doppler factor
Unknown
Orbital elements
Apogee altitude
39,696.657 km
Perigee altitude
349.818 km
Semi-major axis
26,401.375 km
Eccentricity
0.74517
Inclination
21.7201°
RAAN
231.4888°
Arg. of periapsis
24.9101°
True anomaly
334.65474°
Mean anomaly
357.4612°
Eccentric anomaly
350.17788°
Mean motion
0.50595 °/min
Orbital period
711.54 mins
BSTAR
0.006677
Loading maneuver chart data...
Computing Atmospheric mass density...
Loading historical data...
Loading historical data...
Loading historical data...
Loading historical data...
Loading historical data...
Loading historical data...
Loading historical data...

Documentation

Showing up to 5 results
|